Yuma MCAS, AZ

2:25 AM MST on April 24, 2018 (GMT -0700)
Yuma Marine Corps Air Station

Weather History for KNYL - November, 2013

Change the Weather History Date:

Friday, November 1, 2013

  Actual Average Record
Temperature  
Mean Temperature 69 °F 71 °F  
Max Temperature 84 °F 84 °F 96 °F (1962)
Min Temperature 53 °F 59 °F 41 °F (1886)
Degree Days  
Heating Degree Days 0 0  
Month to date heating degree days 0 0  
Since 1 July heating degree days 0 2  
Cooling Degree Days 4 7  
Month to date cooling degree days 4 7  
Year to date cooling degree days 4704 4569  
Growing Degree Days 18 (Base 50)    
Moisture  
Dew Point 29 °F    
Average Humidity 27    
Maximum Humidity 41    
Minimum Humidity 12    
Precipitation  
Precipitation 0.00 in 0.01 in 0.22 in (1987)
Month to date precipitation 0.00 0.01  
Year to date precipitation 2.31 2.84  
Sea Level Pressure  
Sea Level Pressure 30.04 in    
Wind  
Wind Speed 4 mph (NNE)    
Max Wind Speed 12 mph    
Max Gust Speed 15 mph    
Visibility 10 miles    
Events      
T = Trace of Precipitation, MM = Missing Value Source: NWS Daily Summary

Daily Weather History Graph

Daily Weather History Graph

Search for Another Location

Airport or City:

Astronomy

Nov. 01, 2013 Rise Set
Actual Time 6:56 AM MST 5:47 PM MST
Civil Twilight 6:30 AM MST 6:12 PM MST
Nautical Twilight 6:01 AM MST 6:41 PM MST
Astronomical Twilight 5:32 AM MST 7:10 PM MST
Moon 4:58 AM MST (11/1) 4:38 PM MST (11/1)
Length of Visible Light 11h 41m
Length of Day
10h 51m
Waning Crescent, 4% of the Moon is Illuminated
Nov 1
Waning Crescent
Nov 3
New
Nov 9
First Quarter
Nov 17
Full
Nov 25
Last Quarter

Hourly Weather History & Observations

Time (MST) Temp. Dew Point Humidity Pressure Visibility Wind Dir Wind Speed Gust Speed Precip Events Conditions
12:57 AM 57.9 °F 33.1 °F 39% 30.05 in 10.0 mi Calm Calm - N/A   Clear
1:57 AM 55.9 °F 32.0 °F 40% 30.06 in 10.0 mi Calm Calm - N/A   Clear
2:57 AM 57.9 °F 33.1 °F 39% 30.06 in 10.0 mi NE 3.5 mph - N/A   Clear
3:57 AM 57.9 °F 30.9 °F 36% 30.05 in 10.0 mi NNE 3.5 mph - N/A   Clear
4:57 AM 57.0 °F 30.9 °F 37% 30.06 in 10.0 mi North 3.5 mph - N/A   Clear
5:57 AM 57.0 °F 30.0 °F 36% 30.07 in 10.0 mi Calm Calm - N/A   Clear
6:57 AM 57.0 °F 30.0 °F 36% 30.09 in 10.0 mi Calm Calm - N/A   Clear
7:57 AM 60.1 °F 30.0 °F 32% 30.11 in 10.0 mi Calm Calm - N/A   Clear
8:57 AM 66.9 °F 26.1 °F 21% 30.12 in 10.0 mi North 6.9 mph - N/A   Clear
9:57 AM 71.1 °F 27.0 °F 19% 30.13 in 10.0 mi North 6.9 mph - N/A   Clear
10:57 AM 73.0 °F 28.9 °F 20% 30.12 in 10.0 mi NE 9.2 mph - N/A   Clear
11:57 AM 77.0 °F 28.0 °F 17% 30.10 in 10.0 mi NE 9.2 mph - N/A   Clear
12:57 PM 80.1 °F 27.0 °F 14% 30.06 in 10.0 mi NNE 9.2 mph - N/A   Clear
1:57 PM 82.0 °F 26.1 °F 13% 30.03 in 10.0 mi NNE 8.1 mph - N/A   Clear
2:57 PM 82.9 °F 26.1 °F 13% 30.01 in 10.0 mi NE 5.8 mph - N/A   Clear
3:57 PM 82.9 °F 25.0 °F 12% 29.99 in 10.0 mi NNE 6.9 mph - N/A   Clear
4:57 PM 82.9 °F 26.1 °F 13% 29.98 in 10.0 mi NNE 3.5 mph - N/A   Clear
5:57 PM 79.0 °F 27.0 °F 15% 29.97 in 10.0 mi NNW 6.9 mph - N/A   Clear
6:57 PM 73.9 °F 28.9 °F 19% 29.99 in 10.0 mi NW 3.5 mph - N/A   Clear
7:57 PM 72.0 °F 28.0 °F 20% 29.99 in 10.0 mi NNW 5.8 mph - N/A   Clear
8:57 PM 68.0 °F 30.0 °F 24% 29.99 in 10.0 mi Calm Calm - N/A   Clear
9:57 PM 64.9 °F 30.9 °F 28% 30.00 in 10.0 mi South 3.5 mph - N/A   Clear
10:57 PM 63.0 °F 36.0 °F 37% 29.99 in 10.0 mi Calm Calm - N/A   Clear
11:57 PM 61.0 °F 36.0 °F 39% 29.99 in 10.0 mi Calm Calm - N/A   Clear